TimeCDT,TemperatureF,Dew PointF,Humidity,Sea Level PressureIn,VisibilityMPH,Wind Direction,Wind SpeedMPH,Gust SpeedMPH,PrecipitationIn,Events,Conditions,WindDirDegrees,DateUTC
12:53 AM,41.0,35.1,79,30.01,10.0,NNW,10.4,-,N/A,,Clear,330,2012-11-01 05:53:00
1:32 AM,42.8,35.6,76,29.98,10.0,NNW,11.5,-,N/A,,Mostly Cloudy,340,2012-11-01 06:32:00
1:39 AM,42.8,35.6,76,29.98,10.0,NNW,12.7,-,N/A,,Mostly Cloudy,340,2012-11-01 06:39:00
1:53 AM,42.1,35.1,76,30.01,10.0,NNW,16.1,-,N/A,,Overcast,340,2012-11-01 06:53:00
2:09 AM,41.0,35.6,81,29.99,10.0,NNW,13.8,19.6,N/A,,Overcast,340,2012-11-01 07:09:00
2:53 AM,41.0,35.1,79,30.02,10.0,NNW,16.1,24.2,N/A,,Overcast,340,2012-11-01 07:53:00
3:08 AM,39.2,33.8,81,29.99,10.0,North,13.8,25.3,N/A,,Overcast,350,2012-11-01 08:08:00
3:41 AM,39.2,33.8,81,30.00,10.0,NNW,15.0,-,N/A,,Overcast,340,2012-11-01 08:41:00
3:53 AM,39.9,33.1,77,30.03,10.0,NNW,11.5,-,N/A,,Overcast,340,2012-11-01 08:53:00
4:53 AM,39.0,30.0,70,30.04,10.0,North,13.8,21.9,N/A,,Overcast,360,2012-11-01 09:53:00
5:53 AM,37.9,30.0,73,30.05,10.0,NNW,18.4,24.2,N/A,,Overcast,340,2012-11-01 10:53:00
6:53 AM,36.0,27.0,70,30.07,10.0,NNW,11.5,-,N/A,,Overcast,340,2012-11-01 11:53:00
7:53 AM,35.1,26.1,70,30.07,10.0,NNW,16.1,25.3,N/A,,Overcast,340,2012-11-01 12:53:00
8:53 AM,33.1,25.0,72,30.09,10.0,North,16.1,20.7,N/A,,Overcast,350,2012-11-01 13:53:00
9:53 AM,34.0,24.1,67,30.10,10.0,North,16.1,23.0,N/A,,Mostly Cloudy,350,2012-11-01 14:53:00
10:19 AM,35.6,23.0,60,30.06,10.0,North,11.5,20.7,N/A,,Scattered Clouds,360,2012-11-01 15:19:00
10:53 AM,35.1,23.0,61,30.11,10.0,North,11.5,-,N/A,,Partly Cloudy,10,2012-11-01 15:53:00
11:53 AM,35.1,21.9,59,30.11,10.0,North,13.8,-,N/A,,Clear,350,2012-11-01 16:53:00
12:53 PM,37.9,21.9,53,30.10,10.0,North,10.4,-,N/A,,Clear,360,2012-11-01 17:53:00
1:53 PM,39.0,21.9,50,30.07,10.0,NNW,9.2,-,N/A,,Clear,340,2012-11-01 18:53:00
2:53 PM,39.9,21.0,47,30.06,10.0,North,10.4,-,N/A,,Clear,350,2012-11-01 19:53:00
3:53 PM,39.9,21.0,47,30.06,10.0,North,11.5,-,N/A,,Clear,350,2012-11-01 20:53:00
4:53 PM,37.0,23.0,57,30.07,10.0,NNW,12.7,-,N/A,,Clear,330,2012-11-01 21:53:00
6:53 PM,32.0,21.9,66,30.09,10.0,North,11.5,-,N/A,,Clear,10,2012-11-01 23:53:00
7:53 PM,30.9,19.9,64,30.11,10.0,NE,11.5,-,N/A,,Clear,40,2012-11-02 00:53:00
8:53 PM,28.9,19.0,67,30.11,10.0,NE,9.2,-,N/A,,Clear,40,2012-11-02 01:53:00
9:53 PM,28.0,19.0,69,30.12,10.0,NE,4.6,-,N/A,,Clear,40,2012-11-02 02:53:00
10:53 PM,28.0,19.9,72,30.12,10.0,NE,6.9,-,N/A,,Clear,50,2012-11-02 03:53:00
11:53 PM,27.0,19.9,75,30.13,10.0,NE,5.8,-,N/A,,Clear,40,2012-11-02 04:53:00